Regional Weather Roundup
Issued by NWS

Home | Current Version | Previous Version | Text Only | Print | Product List | Glossary On
Versions: 1 2 3 4 5 6 7 8 9 10 11 12 13 14 15 16 17 18 19 20 21 22 23 24 25 26 27 28 29 30 31 32 33 34 35 36 37 38 39 40 41 42 43 44 45 46 47 48 49 50
000
ASUS43 KMKX 310600
RWRWI

WISCONSIN REGIONAL WEATHER ROUNDUP
NATIONAL WEATHER SERVICE MILWAUKEE/SULLIVAN WI
1200 AM CST SAT JAN 31 2015

NOTE: "FAIR" INDICATES FEW OR NO CLOUDS BELOW 12,000 FEET WITH NO
SIGNIFICANT WEATHER AND/OR OBSTRUCTIONS TO VISIBILITY.

WIZ001-002-006>008-014>016-023>028-310700-
NORTHWEST WISCONSIN

CITY           SKY/WX    TMP DP  RH WIND       PRES   REMARKS
SUPERIOR ARPT  CLOUDY    19  10  68 CALM      30.16F
ASHLAND        CLOUDY    20  10  65 SW7       30.16F WCI  11
6HR MIN TEMP:  17; 6HR MAX TEMP:  20;

HAYWARD        CLOUDY    19  10  68 S5        30.14F WCI  12
6HR MIN TEMP:  15; 6HR MAX TEMP:  19;

SIREN          CLOUDY    21  14  74 CALM      30.15F
CUMBERLAND     CLOUDY    18  10  73 SE6       30.14F WCI   9
RICE LAKE      CLOUDY    17   9  71 SE8       30.18F WCI   6
CHETEK         CLOUDY    16   8  71 SE6       30.17F WCI   8
LADYSMITH      CLOUDY    18   9  65 S6        30.19F WCI  10
EAU CLAIRE     CLOUDY    19   8  62 SE3       30.18F
6HR MIN TEMP:  14; 6HR MAX TEMP:  19;

MENOMONIE      CLOUDY    19  11  73 CALM      30.19F
NEW RICHMOND   CLOUDY    22  17  79 S7        30.15F WCI  14
OSCEOLA        CLOUDY    24  19  80 S6        30.18F WCI  17
$$

WIZ003>005-009-010-017-018-310700-
NORTH CENTRAL WISCONSIN

CITY           SKY/WX    TMP DP  RH WIND       PRES   REMARKS
MANITOWISH WTR FLURRIES  15   6  68 SW5       30.13F WCI   7
ARBOR VITAE    FLURRIES  17   9  70 S5        30.13F WCI  10
WOODRUFF       FLURRIES  17   9  70 S5        30.13F WCI  10
RHINELANDER    CLOUDY    14   5  67 SW7       30.15F WCI   4
6HR MIN TEMP:  13; 6HR MAX TEMP:  16;

EAGLE RIVER    CLOUDY    15   4  62 CALM      30.13F
LAND O LAKES   CLOUDY    16   6  66 SW3       30.13F
PHILLIPS       CLOUDY    16   6  65 SW6       30.14F WCI   8
TOMAHAWK       CLOUDY    14   6  72 CALM      30.16F
MEDFORD        CLOUDY    15   7  69 S6        30.17F WCI   7
MERRILL        CLOUDY    13   6  72 CALM      30.19F
$$

WIZ029-030-035-036-043>047-310700-
CENTRAL WISCONSIN

CITY           SKY/WX    TMP DP  RH WIND       PRES   REMARKS
WAUSAU         CLOUDY    15   5  64 SW3       30.18F
6HR MIN TEMP:  12; 6HR MAX TEMP:  16;

MOSINEE        CLOUDY    16   9  73 SW7       30.21F WCI   6
MARSHFIELD     PTCLDY    14   4  64 S5        30.19F WCI   6
6HR MIN TEMP:  13; 6HR MAX TEMP:  17;

STEVENS POINT  CLOUDY    15   6  66 CALM      30.23S
WAUPACA        CLOUDY    19   9  66 S5        30.25F WCI  12
WAUTOMA        NOT AVBL
WISC RAPIDS    MOCLDY    14   5  67 S3        30.24F
6HR MIN TEMP:  11; 6HR MAX TEMP:  19;

CAMP DOUGLAS   NOT AVBL
$$

WIZ011>013-019>022-031-037>040-048>050-310700-
NORTHEAST WISCONSIN

CITY           SKY/WX    TMP DP  RH WIND       PRES   REMARKS
ANTIGO         CLOUDY    13   6  73 SW6       30.18F WCI   4
SHAWANO        CLOUDY    19   9  63 CALM      30.25F
OCONTO         MOCLDY    19  10  69 CALM      30.26F
STURGEON BAY   CLOUDY    19  10  68 SW7       30.27F WCI  10
6HR MIN TEMP:  16; 6HR MAX TEMP:  19;

GREEN BAY      CLOUDY    20  12  71 S6        30.26F WCI  12
6HR MIN TEMP:  17; 6HR MAX TEMP:  20;

MANITOWOC      NOT AVBL
APPLETON       CLOUDY    18   9  68 S9        30.24F WCI   6
CLINTONVILLE   CLOUDY    18   9  68 S3        30.24F
OSHKOSH        CLOUDY    16   9  74 S7        30.26F WCI   6
6HR MIN TEMP:  11; 6HR MAX TEMP:  21;

$$

WIZ032>034-041-042-053>061-310700-
SOUTHWEST WISCONSIN

CITY           SKY/WX    TMP DP  RH WIND       PRES   REMARKS
LA CROSSE      PTCLDY    25  12  58 SE8       30.23F WCI  16
6HR MIN TEMP:  21; 6HR MAX TEMP:  25;

SPARTA         PTCLDY    24  12  60 SW5       30.24F WCI  18
VIROQUA        CLEAR     22  13  68 SW8       30.22F WCI  13
BOSCOBEL       PTCLDY    22  14  71 SW5       30.28F WCI  16
6HR MIN TEMP:  16; 6HR MAX TEMP:  23;

PRAIRIE DU CHI PTCLDY    23  12  63 CALM      30.29F
PLATTEVILLE    CLOUDY    23  18  80 S8        30.29F WCI  14
$$

WIZ056-057-062-063-064-067-068-310700-
SOUTH CENTRAL WISCONSIN

CITY           SKY/WX    TMP DP  RH WIND       PRES   REMARKS
REEDSBURG      CLOUDY    23  14  68 SW8       30.26S WCI  14
BARABOO/DELLS  CLOUDY    23  14  69 SW10      30.25S WCI  12
LONE ROCK      NOT AVBL
MINERAL POINT  CLOUDY    27  18  69 S9        30.26F WCI  17
MADISON        CLOUDY    23  14  68 SW5       30.27F WCI  17
6HR MIN TEMP:  17; 6HR MAX TEMP:  23;

MIDDLETON      CLOUDY    24  14  68 SW9       30.27F WCI  14
WATERTOWN      PTCLDY    17  12  83 S3        30.29S
MONROE         CLOUDY    21  18  86 S10       30.28F WCI  10
JANESVILLE     CLOUDY    23  16  74 SW8       30.30F WCI  14
$$

WIZ051-052-058>065-066-070>072-310700-
SOUTHEAST WISCONSIN

CITY           SKY/WX    TMP DP  RH WIND       PRES   REMARKS
MILWAUKEE      PTCLDY    20  11  68 SW9       30.31F WCI   9
6HR MIN TEMP:  19; 6HR MAX TEMP:  25;

WAUKESHA       MOCLDY    18  10  73 SW6       30.30F WCI   9
MILWAUKEE/TIMM PTCLDY    19  12  73 SW9       30.31F WCI   9
RACINE         PTCLDY    19  12  74 S7        30.32F WCI  10
6HR MIN TEMP:  18; 6HR MAX TEMP:  24;

BURLINGTON     PTCLDY    11   9  91 S3        30.31F
KENOSHA        PTCLDY    19  13  77 SW7       30.31F WCI  10
6HR MIN TEMP:  18; 6HR MAX TEMP:  23;

FOND DU LAC    MOCLDY    17   8  67 S7        30.27F WCI   8
6HR MIN TEMP:  13; 6HR MAX TEMP:  21;

SHEBOYGAN      CLOUDY    18  10  71 SW3       30.29S
6HR MIN TEMP:  17; 6HR MAX TEMP:  21;

WEST BEND      PTCLDY    19  10  68 SW3       30.28S
JUNEAU         CLEAR     16  10  78 S6        30.29S WCI   7
$$

LSZ147-162-310700-
LAKE SUPERIOR

STATION/POSITION TIME  TEMP    WIND        PRES    WAVE
                       AIR SEA DIR/SP/G            HT/PER
                 (UTC) (F)     (DEG/KT/KT) (MB)    (FT/S)
DEVILS ISLAND    0500   20     220/ 10/ 14 1023.1F
PORT WING        0540   20     210/  3/  6 1021.7F
SAXON HARBOR     0500   20     190/  4/  8 1021.7F
$$

LMZ867-665-643>646-310700-
LAKE MICHIGAN

STATION/POSITION TIME  TEMP    WIND        PRES    WAVE
                       AIR SEA DIR/SP/G            HT/PER
                 (UTC) (F)     (DEG/KT/KT) (MB)    (FT/S)
NORTHPORT PIER   0516   19     240/  3/  7 1025.1F
SISTER BAY       0413   19     200/  8/ 10   N/A
KEWAUNEE LAKESHO 0500   20     230/  5/  8 1025.2F
SHEBOYGAN LAKESH 0500   22     210/  8/  9 1027.6F
PORT WASHINGTON  0540   21     220/  2/  6 1026.8F
MILWAUKEE LAKESH 0500   23     240/ 11/ 13   N/A
KENOSHA   LAKESH 0500   22     230/  5/  7 1027.4F
$$

TC  - TEMPERATURE IN CELSIUS
VSB - VISIBILITY IN STATUTE MILES
WCI - WIND CHILL INDEX
HX  - HEAT INDEX



USA.gov is the U.S. government's official web portal to all federal, state and local government web resources and services.